Location: Peterborough
(44.3091°N, 78.3197°W)
Time: 07:22:55
(UTC-04:00)

Vanguard 1 Rocket - Pass Details

Date: 23 March 2023
Orbit: 655 x 4220 km, 34.3° (Epoch: 04 June)

Event Time Altitude Azimuth Distance (km) Brightness Sun altitude
Rises 04:47:10 0° 271° (W) 6,449 - -25.5°
Reaches altitude 10° 04:52:35 10° 265° (W) 4,808 - -24.7°
Exits shadow 05:01:41 34° 222° (SW) 2,274 8.9 -23.2°
Maximum altitude 05:02:57 36° 205° (SSW) 2,096 8.8 -23.0°
Drops below altitude 10° 05:08:58 10° 141° (SE) 2,761 10.0 -22.0°
Sets 05:11:14 0° 131° (SE) 3,464 10.7 -21.7°
